Weather History for Krasnodar, Russia

Change the Weather History Date:

Saturday, November 2, 2013

  Actual Average Record
Temperature  
Mean Temperature 52 °F -  
Max Temperature 64 °F - - ()
Min Temperature 41 °F - - ()
Degree Days  
Heating Degree Days 12    
Growing Degree Days 2 (Base 50)    
Moisture  
Dew Point 45 °F    
Average Humidity 82    
Maximum Humidity 93    
Minimum Humidity 63    
Precipitation  
Precipitation 0.00 in 0.09 in - ()
Sea Level Pressure  
Sea Level Pressure 30.22 in    
Wind  
Wind Speed 5 mph ()    
Max Wind Speed 9 mph    
Max Gust Speed 13 mph    
Visibility 4.8 miles    
Events      
T = Trace of Precipitation, MM = Missing Value Source: Averaged Metar Reports

Daily Weather History Graph

Daily Weather History Graph

Search for Another Location

Airport:

Trip Planner

Search our weather history database for the weather conditions in past years. The results will help you decide how hot, cold, wet, or windy it might be!

Date:

Astronomy

Nov. 02, 2013 Rise Set
Actual Time 8:03 AM MSK 6:10 PM MSK
Civil Twilight 7:32 AM MSK 6:40 PM MSK
Nautical Twilight 6:57 AM MSK 7:15 PM MSK
Astronomical Twilight 6:23 AM MSK 7:49 PM MSK
Moon 6:34 AM MSK (11/2) 5:29 PM MSK (11/2)
Length of Visible Light 11h 08m
Length of Day
10h 06m
Waning Crescent, 2% of the Moon is Illuminated
Nov 2
Waning Crescent
Nov 3
New
Nov 10
First Quarter
Nov 17
Full
Nov 25
Last Quarter

Hourly Weather History & Observations

Time (MSK) Temp. Windchill Dew Point Humidity Pressure Visibility Wind Dir Wind Speed Gust Speed Precip Events Conditions
12:00 AM 44.6 °F 40.8 °F 39.2 °F 81% 30.30 in - NE 6.7 mph - N/A   Clear
12:30 AM 44.6 °F 42.3 °F 39.2 °F 81% 30.30 in - NE 4.5 mph - N/A   Clear
1:00 AM 44.6 °F 40.8 °F 41.0 °F 87% 30.30 in - NE 6.7 mph - N/A   Clear
1:30 AM 44.6 °F 40.8 °F 41.0 °F 87% 30.30 in - ENE 6.7 mph - N/A   Clear
2:00 AM 44.6 °F 40.8 °F 41.0 °F 87% 30.30 in - NE 6.7 mph - N/A   Clear
2:30 AM 42.8 °F 38.7 °F 39.2 °F 87% 30.30 in - NE 6.7 mph - N/A   Clear
3:00 AM 42.8 °F 38.7 °F 39.2 °F 87% 30.30 in - NE 6.7 mph - N/A   Clear
3:30 AM 42.8 °F 38.7 °F 41.0 °F 93% 30.30 in - NE 6.7 mph - N/A   Clear
4:00 AM 42.8 °F 38.7 °F 41.0 °F 93% 30.27 in 6.2 mi East 6.7 mph - N/A   Partly Cloudy
4:30 AM 44.6 °F 39.8 °F 41.0 °F 87% 30.27 in 6.2 mi ENE 8.9 mph - N/A   Scattered Clouds
5:00 AM 44.6 °F 40.8 °F 41.0 °F 87% 30.27 in 6.2 mi ESE 6.7 mph - N/A   Partly Cloudy
5:30 AM 44.6 °F 39.8 °F 41.0 °F 87% 30.27 in 6.2 mi ESE 8.9 mph - N/A   Partly Cloudy
6:00 AM 44.6 °F 40.8 °F 41.0 °F 87% 30.27 in 6.2 mi ESE 6.7 mph - N/A   Partly Cloudy
6:30 AM 42.8 °F 40.2 °F 41.0 °F 93% 30.27 in - East 4.5 mph - N/A   Clear
7:00 AM 42.8 °F 40.2 °F 41.0 °F 93% 30.24 in - ESE 4.5 mph - N/A   Clear
7:30 AM 42.8 °F 40.2 °F 41.0 °F 93% 30.27 in 5.6 mi East 4.5 mph - N/A   Partly Cloudy
8:00 AM 41.0 °F 36.5 °F 39.2 °F 93% 30.24 in 5.6 mi NNE 6.7 mph - N/A   Partly Cloudy
8:30 AM 41.0 °F 38.1 °F 39.2 °F 93% 30.24 in - NNE 4.5 mph - N/A   Mostly Cloudy
9:00 AM 41.0 °F 38.1 °F 39.2 °F 93% 30.24 in 3.1 mi NE 4.5 mph - N/A   Scattered Clouds
9:30 AM 42.8 °F 40.2 °F 41.0 °F 93% 30.24 in 5.6 mi ENE 4.5 mph - N/A   Partly Cloudy
10:00 AM 46.4 °F 43.0 °F 42.8 °F 87% 30.24 in 5.6 mi ENE 6.7 mph - N/A   Partly Cloudy
10:30 AM 48.2 °F - 44.6 °F 87% 30.24 in 5.0 mi ENE 4.5 mph - N/A   Partly Cloudy
11:00 AM 50.0 °F - 44.6 °F 82% 30.24 in - ENE 6.7 mph - N/A   Clear
11:30 AM 51.8 °F - 46.4 °F 82% 30.24 in 6.2 mi East 4.5 mph - N/A   Clear
12:00 PM 55.4 °F - 48.2 °F 77% 30.24 in - East 4.5 mph - N/A   Clear
12:30 PM 55.4 °F - 48.2 °F 77% 30.24 in - SSE 4.5 mph - N/A   Clear
1:00 PM 55.4 °F - 48.2 °F 77% 30.21 in - ESE 4.5 mph 13.4 mph N/A   Clear
1:30 PM 59.0 °F - 50.0 °F 72% 30.21 in - ESE 4.5 mph - N/A   Clear
2:00 PM 60.8 °F - 50.0 °F 68% 30.21 in - ENE 4.5 mph - N/A   Clear
2:30 PM 62.6 °F - 50.0 °F 63% 30.18 in - Variable 2.2 mph - N/A   Clear
3:00 PM 62.6 °F - 51.8 °F 68% 30.18 in - SE 4.5 mph - N/A   Clear
3:30 PM 62.6 °F - 50.0 °F 63% 30.18 in - SSE 4.5 mph - N/A   Clear
4:00 PM 62.6 °F - 50.0 °F 63% 30.18 in - East 4.5 mph - N/A   Clear
4:30 PM 64.4 °F - 51.8 °F 64% 30.15 in - ENE 6.7 mph - N/A   Clear
5:00 PM 62.6 °F - 50.0 °F 63% 30.15 in - East 6.7 mph - N/A   Clear
5:30 PM 60.8 °F - 48.2 °F 63% 30.15 in - ENE 6.7 mph - N/A   Clear
6:00 PM 57.2 °F - 48.2 °F 72% 30.15 in - ENE 4.5 mph - N/A   Clear
6:30 PM 55.4 °F - 48.2 °F 77% 30.15 in 5.6 mi ENE 4.5 mph - N/A   Partly Cloudy
7:00 PM 55.4 °F - 48.2 °F 77% 30.15 in 3.7 mi NE 4.5 mph - N/A   Partly Cloudy
7:30 PM 53.6 °F - 46.4 °F 77% 30.15 in - NE 4.5 mph - N/A   Smoke
8:00 PM 51.8 °F - 46.4 °F 82% 30.15 in - NE 4.5 mph - N/A   Smoke
8:30 PM 51.8 °F - 46.4 °F 82% 30.15 in 1.3 mi NE 4.5 mph - N/A   Scattered Clouds
9:00 PM 51.8 °F - 46.4 °F 82% 30.12 in 1.6 mi NE 4.5 mph - N/A   Scattered Clouds
9:30 PM 50.0 °F - 44.6 °F 82% 30.12 in - NE 4.5 mph - N/A   Scattered Clouds
10:00 PM 50.0 °F - 46.4 °F 87% 30.12 in 1.9 mi NE 4.5 mph - N/A   Scattered Clouds
10:30 PM 48.2 °F - 44.6 °F 87% 30.12 in - NE 4.5 mph - N/A   Scattered Clouds
11:00 PM 48.2 °F - 44.6 °F 87% 30.12 in - ENE 4.5 mph - N/A   Clear
11:30 PM 48.2 °F - 44.6 °F 87% 30.12 in - East 6.7 mph - N/A   Clear